Year,Month,Day,Hour,Minute,Value (Times are PST for temperature in C)
2006,08,01,00,00,15.10
2006,08,01,00,01,15.10
2006,08,01,00,02,15.10
2006,08,01,00,03,15.10
2006,08,01,00,04,15.10
2006,08,01,00,05,15.10
2006,08,01,00,06,15.10
2006,08,01,00,07,15.10
2006,08,01,00,08,15.10
2006,08,01,00,09,15.10
2006,08,01,00,10,15.10
2006,08,01,00,11,15.10
2006,08,01,00,12,15.10
2006,08,01,00,13,15.10
2006,08,01,00,14,15.10
2006,08,01,00,15,15.10
2006,08,01,00,16,15.00
2006,08,01,00,17,15.00
2006,08,01,00,18,15.00
2006,08,01,00,19,15.00
2006,08,01,00,20,15.00
2006,08,01,00,21,14.90
2006,08,01,00,22,14.90
2006,08,01,00,23,14.80
2006,08,01,00,24,14.80
2006,08,01,00,25,14.80
2006,08,01,00,26,14.80
2006,08,01,00,27,14.80
2006,08,01,00,28,14.80
2006,08,01,00,29,14.80
2006,08,01,00,30,14.80
2006,08,01,00,31,14.80
2006,08,01,00,32,14.80
2006,08,01,00,33,14.80
2006,08,01,00,34,14.80
2006,08,01,00,35,14.70
2006,08,01,00,36,14.70
2006,08,01,00,37,14.60
2006,08,01,00,38,14.60
2006,08,01,00,39,14.60
2006,08,01,00,40,14.60
2006,08,01,00,41,14.60
2006,08,01,00,42,14.60
2006,08,01,00,43,14.60
2006,08,01,00,44,14.60
2006,08,01,00,45,14.60
2006,08,01,00,46,14.50
2006,08,01,00,47,14.50
2006,08,01,00,48,14.50
2006,08,01,00,49,14.50
2006,08,01,00,50,14.40
2006,08,01,00,51,14.40
2006,08,01,00,52,14.40
2006,08,01,00,53,14.30
2006,08,01,00,54,14.30
2006,08,01,00,55,14.30
2006,08,01,00,56,14.20
2006,08,01,00,57,14.20
2006,08,01,00,58,14.20
2006,08,01,00,59,14.20
2006,08,01,01,00,14.20
2006,08,01,01,01,14.20
2006,08,01,01,02,14.20
2006,08,01,01,03,14.20
2006,08,01,01,04,14.20
2006,08,01,01,05,14.20
2006,08,01,01,06,14.10
2006,08,01,01,07,14.10
2006,08,01,01,08,14.10
2006,08,01,01,09,14.10
2006,08,01,01,10,14.00
2006,08,01,01,11,14.00
2006,08,01,01,12,14.00
2006,08,01,01,13,14.00
2006,08,01,01,14,14.00
2006,08,01,01,15,14.00
2006,08,01,01,16,14.00
2006,08,01,01,17,14.00
2006,08,01,01,18,14.00
2006,08,01,01,19,14.00
2006,08,01,01,20,14.00
2006,08,01,01,21,14.00
2006,08,01,01,22,14.00
2006,08,01,01,23,14.00
2006,08,01,01,24,13.90
2006,08,01,01,25,13.90
2006,08,01,01,26,13.90
2006,08,01,01,27,13.90
2006,08,01,01,28,13.90
2006,08,01,01,29,13.90
2006,08,01,01,30,13.80
2006,08,01,01,31,13.80
2006,08,01,01,32,13.70
2006,08,01,01,33,13.70
2006,08,01,01,34,13.70
2006,08,01,01,35,13.70
2006,08,01,01,36,13.70
2006,08,01,01,37,13.70
2006,08,01,01,38,13.70
2006,08,01,01,39,13.70
2006,08,01,01,40,13.70
2006,08,01,01,41,13.70
2006,08,01,01,42,13.70
2006,08,01,01,43,13.70
2006,08,01,01,44,13.70
2006,08,01,01,45,13.70
2006,08,01,01,46,13.70
2006,08,01,01,47,13.60
2006,08,01,01,48,13.60
2006,08,01,01,49,13.60
2006,08,01,01,50,13.60
2006,08,01,01,51,13.60
2006,08,01,01,52,13.60
2006,08,01,01,53,13.50
2006,08,01,01,54,13.50
2006,08,01,01,55,13.50
2006,08,01,01,56,13.50
2006,08,01,01,57,13.40
2006,08,01,01,58,13.40
2006,08,01,01,59,13.40
2006,08,01,02,00,13.30
2006,08,01,02,01,13.30
2006,08,01,02,02,13.30
2006,08,01,02,03,13.30
2006,08,01,02,04,13.30
2006,08,01,02,05,13.30
2006,08,01,02,06,13.30
2006,08,01,02,07,13.30
2006,08,01,02,08,13.30
2006,08,01,02,09,13.30
2006,08,01,02,10,13.30
2006,08,01,02,11,13.30
2006,08,01,02,12,13.30
2006,08,01,02,13,13.30
2006,08,01,02,14,13.30
2006,08,01,02,15,13.30
2006,08,01,02,16,13.30
2006,08,01,02,17,13.30
2006,08,01,02,18,13.30
2006,08,01,02,19,13.30
2006,08,01,02,20,13.30
2006,08,01,02,21,13.30
2006,08,01,02,22,13.30
2006,08,01,02,23,13.30
2006,08,01,02,24,13.30
2006,08,01,02,25,13.30
2006,08,01,02,26,13.30
2006,08,01,02,27,13.30
2006,08,01,02,28,13.30
2006,08,01,02,29,13.20
2006,08,01,02,30,13.30
2006,08,01,02,31,13.30
2006,08,01,02,32,13.30
2006,08,01,02,33,13.30
2006,08,01,02,34,13.20
2006,08,01,02,35,13.20
2006,08,01,02,36,13.20
2006,08,01,02,37,13.20
2006,08,01,02,38,13.20
2006,08,01,02,39,13.30
2006,08,01,02,40,13.30
2006,08,01,02,41,13.20
2006,08,01,02,42,13.20
2006,08,01,02,43,13.20
2006,08,01,02,44,13.20
2006,08,01,02,45,13.20
2006,08,01,02,46,13.20
2006,08,01,02,47,13.20
2006,08,01,02,48,13.20
2006,08,01,02,49,13.20
2006,08,01,02,50,13.20
2006,08,01,02,51,13.20
2006,08,01,02,52,13.20
2006,08,01,02,53,13.30
2006,08,01,02,54,13.30
2006,08,01,02,55,13.30
2006,08,01,02,56,13.30
2006,08,01,02,57,13.30
2006,08,01,02,58,13.30
2006,08,01,02,59,13.30
2006,08,01,03,00,13.30
2006,08,01,03,01,13.30
2006,08,01,03,02,13.20
2006,08,01,03,03,13.20
2006,08,01,03,04,13.20
2006,08,01,03,05,13.20
2006,08,01,03,06,13.20
2006,08,01,03,07,13.20
2006,08,01,03,08,13.10
2006,08,01,03,09,13.10
2006,08,01,03,10,13.10
2006,08,01,03,11,13.10
2006,08,01,03,12,13.10
2006,08,01,03,13,13.10
2006,08,01,03,14,13.10
2006,08,01,03,15,13.10
2006,08,01,03,16,13.00
2006,08,01,03,17,13.00
2006,08,01,03,18,13.00
2006,08,01,03,19,13.00
2006,08,01,03,20,13.00
2006,08,01,03,21,13.00
2006,08,01,03,22,13.00
2006,08,01,03,23,13.00
2006,08,01,03,24,13.00
2006,08,01,03,25,13.00
2006,08,01,03,26,13.00
2006,08,01,03,27,13.10
2006,08,01,03,28,13.10
2006,08,01,03,29,13.00
2006,08,01,03,30,13.00
2006,08,01,03,31,13.00
2006,08,01,03,32,13.00
2006,08,01,03,33,13.00
2006,08,01,03,34,13.00
2006,08,01,03,35,13.00
2006,08,01,03,36,13.00
2006,08,01,03,37,13.00
2006,08,01,03,38,13.00
2006,08,01,03,39,13.00
2006,08,01,03,40,13.10
2006,08,01,03,41,13.10
2006,08,01,03,42,13.10
2006,08,01,03,43,13.10
2006,08,01,03,44,13.10
2006,08,01,03,45,13.10
2006,08,01,03,46,13.10
2006,08,01,03,47,13.10
2006,08,01,03,48,13.10
2006,08,01,03,49,13.10
2006,08,01,03,50,13.10
2006,08,01,03,51,13.10
2006,08,01,03,52,13.10
2006,08,01,03,53,13.10
2006,08,01,03,54,13.10
2006,08,01,03,55,13.10
2006,08,01,03,56,13.00
2006,08,01,03,57,13.00
2006,08,01,03,58,13.10
2006,08,01,03,59,13.10
2006,08,01,04,00,13.10
2006,08,01,04,01,13.10
2006,08,01,04,02,13.10
2006,08,01,04,03,13.10
2006,08,01,04,04,13.10
2006,08,01,04,05,13.10
2006,08,01,04,06,13.20
2006,08,01,04,07,13.20
2006,08,01,04,08,13.20
2006,08,01,04,09,13.20
2006,08,01,04,10,13.20
2006,08,01,04,11,13.20
2006,08,01,04,12,13.20
2006,08,01,04,13,13.20
2006,08,01,04,14,13.20
2006,08,01,04,15,13.10
2006,08,01,04,16,13.10
2006,08,01,04,17,13.10
2006,08,01,04,18,13.10
2006,08,01,04,19,13.10
2006,08,01,04,20,13.10
2006,08,01,04,21,13.10
2006,08,01,04,22,13.10
2006,08,01,04,23,13.10
2006,08,01,04,24,13.10
2006,08,01,04,25,13.10
2006,08,01,04,26,13.20
2006,08,01,04,27,13.20
2006,08,01,04,28,13.20
2006,08,01,04,29,13.20
2006,08,01,04,30,13.20
2006,08,01,04,31,13.20
2006,08,01,04,32,13.20
2006,08,01,04,33,13.30
2006,08,01,04,34,13.30
2006,08,01,04,35,13.20
2006,08,01,04,36,13.20
2006,08,01,04,37,13.20
2006,08,01,04,38,13.20
2006,08,01,04,39,13.30
2006,08,01,04,40,13.30
2006,08,01,04,41,13.30
2006,08,01,04,42,13.20
2006,08,01,04,43,13.20
2006,08,01,04,44,13.20
2006,08,01,04,45,13.30
2006,08,01,04,46,13.30
2006,08,01,04,47,13.30
2006,08,01,04,48,13.30
2006,08,01,04,49,13.20
2006,08,01,04,50,13.20
2006,08,01,04,51,13.20
2006,08,01,04,52,13.30
2006,08,01,04,53,13.20
2006,08,01,04,54,13.20
2006,08,01,04,55,13.20
2006,08,01,04,56,13.20
2006,08,01,04,57,13.20
2006,08,01,04,58,13.20
2006,08,01,04,59,13.20
2006,08,01,05,00,13.20
2006,08,01,05,01,13.20
2006,08,01,05,02,13.20
2006,08,01,05,03,13.20
2006,08,01,05,04,13.20
2006,08,01,05,05,13.20
2006,08,01,05,06,13.20
2006,08,01,05,07,13.20
2006,08,01,05,08,13.20
2006,08,01,05,09,13.20
2006,08,01,05,10,13.20
2006,08,01,05,11,13.20
2006,08,01,05,12,13.20
2006,08,01,05,13,13.20
2006,08,01,05,14,13.20
2006,08,01,05,15,13.20
2006,08,01,05,16,13.10
2006,08,01,05,17,13.20
2006,08,01,05,18,13.20
2006,08,01,05,19,13.20
2006,08,01,05,20,13.20
2006,08,01,05,21,13.10
2006,08,01,05,22,13.10
2006,08,01,05,23,13.20
2006,08,01,05,24,13.20
2006,08,01,05,25,13.20
2006,08,01,05,26,13.20
2006,08,01,05,27,13.20
2006,08,01,05,28,13.10
2006,08,01,05,29,13.10
2006,08,01,05,30,13.20
2006,08,01,05,31,13.20
2006,08,01,05,32,13.20
2006,08,01,05,33,13.20
2006,08,01,05,34,13.20
2006,08,01,05,35,13.20
2006,08,01,05,36,13.20
2006,08,01,05,37,13.20
2006,08,01,05,38,13.20
2006,08,01,05,39,13.20
2006,08,01,05,40,13.20
2006,08,01,05,41,13.20
2006,08,01,05,42,13.20
2006,08,01,05,43,13.20
2006,08,01,05,44,13.20
2006,08,01,05,45,13.20
2006,08,01,05,46,13.20
2006,08,01,05,47,13.20
2006,08,01,05,48,13.20
2006,08,01,05,49,13.20
2006,08,01,05,50,13.20
2006,08,01,05,51,13.20
2006,08,01,05,52,13.20
2006,08,01,05,53,13.20
2006,08,01,05,54,13.20
2006,08,01,05,55,13.10
2006,08,01,05,56,13.10
2006,08,01,05,57,13.10
2006,08,01,05,58,13.10
2006,08,01,05,59,13.10
2006,08,01,06,00,13.10
2006,08,01,06,01,13.20
2006,08,01,06,02,13.20
2006,08,01,06,03,13.20
2006,08,01,06,04,13.20
2006,08,01,06,05,13.30
2006,08,01,06,06,13.30
2006,08,01,06,07,13.30
2006,08,01,06,08,13.30
2006,08,01,06,09,13.30
2006,08,01,06,10,13.30
2006,08,01,06,11,13.30
2006,08,01,06,12,13.30
2006,08,01,06,13,13.30
2006,08,01,06,14,13.30
2006,08,01,06,15,13.30
2006,08,01,06,16,13.30
2006,08,01,06,17,13.30
2006,08,01,06,18,13.30
2006,08,01,06,19,13.30
2006,08,01,06,20,13.30
2006,08,01,06,21,13.30
2006,08,01,06,22,13.30
2006,08,01,06,23,13.30
2006,08,01,06,24,13.30
2006,08,01,06,25,13.30
2006,08,01,06,26,13.30
2006,08,01,06,27,13.30
2006,08,01,06,28,13.30
2006,08,01,06,29,13.30
2006,08,01,06,30,13.30
2006,08,01,06,31,13.30
2006,08,01,06,32,13.30
2006,08,01,06,33,13.30
2006,08,01,06,34,13.30
2006,08,01,06,35,13.30
2006,08,01,06,36,13.30
2006,08,01,06,37,13.30
2006,08,01,06,38,13.30
2006,08,01,06,39,13.30
2006,08,01,06,40,13.30
2006,08,01,06,41,13.30
2006,08,01,06,42,13.30
2006,08,01,06,43,13.30
2006,08,01,06,44,13.30
2006,08,01,06,45,13.30
2006,08,01,06,46,13.30
2006,08,01,06,47,13.30
2006,08,01,06,48,13.30
2006,08,01,06,49,13.30
2006,08,01,06,50,13.30
2006,08,01,06,51,13.30
2006,08,01,06,52,13.30
2006,08,01,06,53,13.30
2006,08,01,06,54,13.30
2006,08,01,06,55,13.30
2006,08,01,06,56,13.30
2006,08,01,06,57,13.30
2006,08,01,06,58,13.30
2006,08,01,06,59,13.30
2006,08,01,07,00,13.30
2006,08,01,07,01,13.30
2006,08,01,07,02,13.30
2006,08,01,07,03,13.30
2006,08,01,07,04,13.30
2006,08,01,07,05,13.30
2006,08,01,07,06,13.30
2006,08,01,07,07,13.30
2006,08,01,07,08,13.30
2006,08,01,07,09,13.30
2006,08,01,07,10,13.30
2006,08,01,07,11,13.40
2006,08,01,07,12,13.40
2006,08,01,07,13,13.50
2006,08,01,07,14,13.50
2006,08,01,07,15,13.50
2006,08,01,07,16,13.50
2006,08,01,07,17,13.50
2006,08,01,07,18,13.50
2006,08,01,07,19,13.60
2006,08,01,07,20,13.60
2006,08,01,07,21,13.60
2006,08,01,07,22,13.60
2006,08,01,07,23,13.60
2006,08,01,07,24,13.60
2006,08,01,07,25,13.60
2006,08,01,07,26,13.60
2006,08,01,07,27,13.70
2006,08,01,07,28,13.70
2006,08,01,07,29,13.70
2006,08,01,07,30,13.70
2006,08,01,07,31,13.70
2006,08,01,07,32,13.80
2006,08,01,07,33,13.80
2006,08,01,07,34,13.80
2006,08,01,07,35,13.80
2006,08,01,07,36,13.90
2006,08,01,07,37,13.90
2006,08,01,07,38,13.90
2006,08,01,07,39,14.00
2006,08,01,07,40,14.00
2006,08,01,07,41,14.00
2006,08,01,07,42,14.00
2006,08,01,07,43,14.00
2006,08,01,07,44,14.10
2006,08,01,07,45,14.20
2006,08,01,07,46,14.20
2006,08,01,07,47,14.20
2006,08,01,07,48,14.20
2006,08,01,07,49,14.30
2006,08,01,07,50,14.30
2006,08,01,07,51,14.30
2006,08,01,07,52,14.30
2006,08,01,07,53,14.20
2006,08,01,07,54,14.20
2006,08,01,07,55,14.20
2006,08,01,07,56,14.20
2006,08,01,07,57,14.20
2006,08,01,07,58,14.20
2006,08,01,07,59,14.30
2006,08,01,08,00,14.30
2006,08,01,08,01,14.30
2006,08,01,08,02,14.30
2006,08,01,08,03,14.40
2006,08,01,08,04,14.40
2006,08,01,08,05,14.40
2006,08,01,08,06,14.50
2006,08,01,08,07,14.50
2006,08,01,08,08,14.50
2006,08,01,08,09,14.60
2006,08,01,08,10,14.70
2006,08,01,08,11,14.80
2006,08,01,08,12,14.80
2006,08,01,08,13,14.90
2006,08,01,08,14,15.00
2006,08,01,08,15,15.00
2006,08,01,08,16,15.10
2006,08,01,08,17,15.20
2006,08,01,08,18,15.30
2006,08,01,08,19,15.30
2006,08,01,08,20,15.30
2006,08,01,08,21,15.30
2006,08,01,08,22,15.30
2006,08,01,08,23,15.30
2006,08,01,08,24,15.40
2006,08,01,08,25,15.50
2006,08,01,08,26,15.50
2006,08,01,08,27,15.50
2006,08,01,08,28,15.50
2006,08,01,08,29,15.50
2006,08,01,08,30,15.50
2006,08,01,08,31,15.60
2006,08,01,08,32,15.60
2006,08,01,08,33,15.60
2006,08,01,08,34,15.70
2006,08,01,08,35,15.70
2006,08,01,08,36,15.70
2006,08,01,08,37,15.80
2006,08,01,08,38,15.80
2006,08,01,08,39,16.00
2006,08,01,08,40,16.10
2006,08,01,08,41,16.10
2006,08,01,08,42,16.20
2006,08,01,08,43,16.20
2006,08,01,08,44,16.20
2006,08,01,08,45,16.30
2006,08,01,08,46,16.30
2006,08,01,08,47,16.30
2006,08,01,08,48,16.30
2006,08,01,08,49,16.30
2006,08,01,08,50,16.40
2006,08,01,08,51,16.40
2006,08,01,08,52,16.60
2006,08,01,08,53,16.60
2006,08,01,08,54,16.70
2006,08,01,08,55,16.80
2006,08,01,08,56,16.80
2006,08,01,08,57,16.90
2006,08,01,08,58,17.00
2006,08,01,08,59,17.00
2006,08,01,09,00,17.10
2006,08,01,09,01,17.10
2006,08,01,09,02,17.00
2006,08,01,09,03,17.00
2006,08,01,09,04,17.00
2006,08,01,09,05,17.00
2006,08,01,09,06,17.00
2006,08,01,09,07,17.00
2006,08,01,09,08,16.90
2006,08,01,09,09,16.90
2006,08,01,09,10,16.90
2006,08,01,09,11,16.90
2006,08,01,09,12,16.90
2006,08,01,09,13,16.90
2006,08,01,09,14,16.90
2006,08,01,09,15,16.90
2006,08,01,09,16,17.00
2006,08,01,09,17,17.00
2006,08,01,09,18,17.00
2006,08,01,09,19,17.10
2006,08,01,09,20,17.10
2006,08,01,09,21,17.20
2006,08,01,09,22,17.30
2006,08,01,09,23,17.30
2006,08,01,09,24,17.30
2006,08,01,09,25,17.30
2006,08,01,09,26,17.30
2006,08,01,09,27,17.50
2006,08,01,09,28,17.60
2006,08,01,09,29,17.80
2006,08,01,09,30,17.90
2006,08,01,09,31,17.90
2006,08,01,09,32,18.00
2006,08,01,09,33,18.10
2006,08,01,09,34,18.10
2006,08,01,09,35,18.20
2006,08,01,09,36,18.20
2006,08,01,09,37,18.30
2006,08,01,09,38,18.20
2006,08,01,09,39,18.20
2006,08,01,09,40,18.20
2006,08,01,09,41,18.20
2006,08,01,09,42,18.20
2006,08,01,09,43,18.20
2006,08,01,09,44,18.20
2006,08,01,09,45,18.30
2006,08,01,09,46,18.40
2006,08,01,09,47,18.40
2006,08,01,09,48,18.30
2006,08,01,09,49,18.20
2006,08,01,09,50,18.20
2006,08,01,09,51,18.20
2006,08,01,09,52,18.20
2006,08,01,09,53,18.20
2006,08,01,09,54,18.20
2006,08,01,09,55,18.30
2006,08,01,09,56,18.30
2006,08,01,09,57,18.40
2006,08,01,09,58,18.50
2006,08,01,09,59,18.50
2006,08,01,10,00,18.50
2006,08,01,10,01,18.40
2006,08,01,10,02,18.20
2006,08,01,10,03,18.20
2006,08,01,10,04,18.10
2006,08,01,10,05,18.10
2006,08,01,10,06,18.10
2006,08,01,10,07,18.10
2006,08,01,10,08,18.10
2006,08,01,10,09,18.10
2006,08,01,10,10,17.90
2006,08,01,10,11,17.90
2006,08,01,10,12,17.90
2006,08,01,10,13,17.80
2006,08,01,10,14,17.70
2006,08,01,10,15,17.70
2006,08,01,10,16,17.80
2006,08,01,10,17,17.90
2006,08,01,10,18,18.00
2006,08,01,10,19,18.20
2006,08,01,10,20,18.20
2006,08,01,10,21,18.30
2006,08,01,10,22,18.30
2006,08,01,10,23,18.40
2006,08,01,10,24,18.40
2006,08,01,10,25,18.50
2006,08,01,10,26,18.60
2006,08,01,10,27,18.60
2006,08,01,10,28,18.60
2006,08,01,10,29,18.60
2006,08,01,10,30,18.50
2006,08,01,10,31,18.50
2006,08,01,10,32,18.40
2006,08,01,10,33,18.30
2006,08,01,10,34,18.30
2006,08,01,10,35,18.30
2006,08,01,10,36,18.40
2006,08,01,10,37,18.50
2006,08,01,10,38,18.50
2006,08,01,10,39,18.60
2006,08,01,10,40,18.60
2006,08,01,10,41,18.50
2006,08,01,10,42,18.30
2006,08,01,10,43,18.20
2006,08,01,10,44,18.20
2006,08,01,10,45,18.20
2006,08,01,10,46,18.30
2006,08,01,10,47,18.40
2006,08,01,10,48,18.40
2006,08,01,10,49,18.50
2006,08,01,10,50,18.50
2006,08,01,10,51,18.40
2006,08,01,10,52,18.30
2006,08,01,10,53,18.10
2006,08,01,10,54,17.90
2006,08,01,10,55,17.80
2006,08,01,10,56,17.90
2006,08,01,10,57,17.90
2006,08,01,10,58,17.90
2006,08,01,10,59,17.90
2006,08,01,11,00,17.90
2006,08,01,11,01,17.90
2006,08,01,11,02,18.00
2006,08,01,11,03,18.10
2006,08,01,11,04,18.10
2006,08,01,11,05,18.20
2006,08,01,11,06,18.30
2006,08,01,11,07,18.40
2006,08,01,11,08,18.40
2006,08,01,11,09,18.40
2006,08,01,11,10,18.30
2006,08,01,11,11,18.30
2006,08,01,11,12,18.20
2006,08,01,11,13,18.30
2006,08,01,11,14,18.20
2006,08,01,11,15,18.20
2006,08,01,11,16,18.20
2006,08,01,11,17,18.20
2006,08,01,11,18,18.10
2006,08,01,11,19,18.00
2006,08,01,11,20,17.90
2006,08,01,11,21,17.90
2006,08,01,11,22,18.00
2006,08,01,11,23,18.20
2006,08,01,11,24,18.30
2006,08,01,11,25,18.60
2006,08,01,11,26,18.80
2006,08,01,11,27,19.00
2006,08,01,11,28,19.10
2006,08,01,11,29,19.10
2006,08,01,11,30,19.10
2006,08,01,11,31,19.10
2006,08,01,11,32,18.90
2006,08,01,11,33,18.80
2006,08,01,11,34,18.80
2006,08,01,11,35,18.80
2006,08,01,11,36,18.90
2006,08,01,11,37,19.00
2006,08,01,11,38,19.10
2006,08,01,11,39,19.20
2006,08,01,11,40,19.30
2006,08,01,11,41,19.30
2006,08,01,11,42,19.30
2006,08,01,11,43,19.30
2006,08,01,11,44,19.20
2006,08,01,11,45,19.10
2006,08,01,11,46,19.20
2006,08,01,11,47,19.10
2006,08,01,11,48,19.00
2006,08,01,11,49,18.90
2006,08,01,11,50,19.00
2006,08,01,11,51,19.10
2006,08,01,11,52,19.10
2006,08,01,11,53,19.20
2006,08,01,11,54,19.30
2006,08,01,11,55,19.40
2006,08,01,11,56,19.50
2006,08,01,11,57,19.50
2006,08,01,11,58,19.50
2006,08,01,11,59,19.60
2006,08,01,12,00,19.70
2006,08,01,12,01,19.90
2006,08,01,12,02,20.10
2006,08,01,12,03,20.20
2006,08,01,12,04,20.40
2006,08,01,12,05,20.50
2006,08,01,12,06,20.50
2006,08,01,12,07,20.60
2006,08,01,12,08,20.70
2006,08,01,12,09,20.70
2006,08,01,12,10,20.70
2006,08,01,12,11,20.80
2006,08,01,12,12,20.90
2006,08,01,12,13,21.00
2006,08,01,12,14,21.10
2006,08,01,12,15,21.10
2006,08,01,12,16,21.20
2006,08,01,12,17,21.20
2006,08,01,12,18,21.10
2006,08,01,12,19,21.10
2006,08,01,12,20,21.10
2006,08,01,12,21,21.10
2006,08,01,12,22,21.10
2006,08,01,12,23,21.00
2006,08,01,12,24,20.90
2006,08,01,12,25,21.00
2006,08,01,12,26,21.00
2006,08,01,12,27,21.00
2006,08,01,12,28,21.20
2006,08,01,12,29,21.30
2006,08,01,12,30,21.30
2006,08,01,12,31,21.40
2006,08,01,12,32,21.50
2006,08,01,12,33,21.60
2006,08,01,12,34,21.60
2006,08,01,12,35,21.60
2006,08,01,12,36,21.60
2006,08,01,12,37,21.60
2006,08,01,12,38,21.70
2006,08,01,12,39,21.90
2006,08,01,12,40,22.00
2006,08,01,12,41,22.10
2006,08,01,12,42,22.10
2006,08,01,12,43,22.00
2006,08,01,12,44,22.00
2006,08,01,12,45,22.00
2006,08,01,12,46,22.10
2006,08,01,12,47,22.20
2006,08,01,12,48,22.30
2006,08,01,12,49,22.40
2006,08,01,12,50,22.30
2006,08,01,12,51,22.30
2006,08,01,12,52,22.20
2006,08,01,12,53,22.10
2006,08,01,12,54,22.00
2006,08,01,12,55,22.00
2006,08,01,12,56,22.10
2006,08,01,12,57,22.00
2006,08,01,12,58,21.90
2006,08,01,12,59,21.80
2006,08,01,13,00,21.60
2006,08,01,13,01,21.50
2006,08,01,13,02,21.30
2006,08,01,13,03,21.10
2006,08,01,13,04,21.20
2006,08,01,13,05,21.30
2006,08,01,13,06,21.30
2006,08,01,13,07,21.40
2006,08,01,13,08,21.30
2006,08,01,13,09,21.40
2006,08,01,13,10,21.70
2006,08,01,13,11,21.90
2006,08,01,13,12,22.10
2006,08,01,13,13,22.20
2006,08,01,13,14,22.20
2006,08,01,13,15,22.10
2006,08,01,13,16,22.00
2006,08,01,13,17,21.90
2006,08,01,13,18,21.80
2006,08,01,13,19,21.80
2006,08,01,13,20,21.90
2006,08,01,13,21,21.90
2006,08,01,13,22,21.90
2006,08,01,13,23,21.70
2006,08,01,13,24,21.40
2006,08,01,13,25,21.30
2006,08,01,13,26,21.30
2006,08,01,13,27,21.20
2006,08,01,13,28,21.20
2006,08,01,13,29,21.30
2006,08,01,13,30,21.30
2006,08,01,13,31,21.40
2006,08,01,13,32,21.40
2006,08,01,13,33,21.40
2006,08,01,13,34,21.50
2006,08,01,13,35,21.30
2006,08,01,13,36,21.30
2006,08,01,13,37,21.30
2006,08,01,13,38,21.20
2006,08,01,13,39,21.20
2006,08,01,13,40,21.30
2006,08,01,13,41,21.40
2006,08,01,13,42,21.60
2006,08,01,13,43,21.70
2006,08,01,13,44,21.90
2006,08,01,13,45,22.00
2006,08,01,13,46,22.00
2006,08,01,13,47,21.90
2006,08,01,13,48,21.90
2006,08,01,13,49,21.90
2006,08,01,13,50,22.00
2006,08,01,13,51,22.20
2006,08,01,13,52,22.30
2006,08,01,13,53,22.50
2006,08,01,13,54,22.60
2006,08,01,13,55,22.60
2006,08,01,13,56,22.70
2006,08,01,13,57,22.70
2006,08,01,13,58,22.60
2006,08,01,13,59,22.30
2006,08,01,14,00,22.20
2006,08,01,14,01,22.20
2006,08,01,14,02,22.50
2006,08,01,14,03,22.70
2006,08,01,14,04,22.90
2006,08,01,14,05,23.00
2006,08,01,14,06,23.20
2006,08,01,14,07,23.30
2006,08,01,14,08,23.40
2006,08,01,14,09,23.30
2006,08,01,14,10,23.20
2006,08,01,14,11,22.90
2006,08,01,14,12,22.70
2006,08,01,14,13,22.60
2006,08,01,14,14,22.40
2006,08,01,14,15,22.40
2006,08,01,14,16,22.30
2006,08,01,14,17,22.30
2006,08,01,14,18,22.30
2006,08,01,14,19,22.20
2006,08,01,14,20,22.10
2006,08,01,14,21,22.20
2006,08,01,14,22,22.20
2006,08,01,14,23,22.10
2006,08,01,14,24,22.00
2006,08,01,14,25,21.90
2006,08,01,14,26,21.90
2006,08,01,14,27,22.10
2006,08,01,14,28,22.30
2006,08,01,14,29,22.60
2006,08,01,14,30,22.90
2006,08,01,14,31,23.20
2006,08,01,14,32,23.50
2006,08,01,14,33,23.70
2006,08,01,14,34,23.90
2006,08,01,14,35,24.20
2006,08,01,14,36,24.50
2006,08,01,14,37,24.70
2006,08,01,14,38,24.60
2006,08,01,14,39,24.50
2006,08,01,14,40,24.30
2006,08,01,14,41,24.20
2006,08,01,14,42,24.10
2006,08,01,14,43,24.00
2006,08,01,14,44,23.90
2006,08,01,14,45,23.90
2006,08,01,14,46,23.80
2006,08,01,14,47,23.90
2006,08,01,14,48,23.90
2006,08,01,14,49,23.90
2006,08,01,14,50,24.00
2006,08,01,14,51,24.00
2006,08,01,14,52,23.90
2006,08,01,14,53,23.80
2006,08,01,14,54,23.90
2006,08,01,14,55,24.00
2006,08,01,14,56,24.10
2006,08,01,14,57,24.10
2006,08,01,14,58,24.10
2006,08,01,14,59,24.10
2006,08,01,15,00,24.20
2006,08,01,15,01,24.20
2006,08,01,15,02,24.10
2006,08,01,15,03,24.20
2006,08,01,15,04,24.20
2006,08,01,15,05,24.20
2006,08,01,15,06,24.20
2006,08,01,15,07,24.20
2006,08,01,15,08,24.10
2006,08,01,15,09,24.10
2006,08,01,15,10,24.10
2006,08,01,15,11,24.20
2006,08,01,15,12,24.30
2006,08,01,15,13,24.40
2006,08,01,15,14,24.50
2006,08,01,15,15,24.50
2006,08,01,15,16,24.60
2006,08,01,15,17,24.70
2006,08,01,15,18,24.70
2006,08,01,15,19,24.60
2006,08,01,15,20,24.50
2006,08,01,15,21,24.40
2006,08,01,15,22,24.30
2006,08,01,15,23,24.20
2006,08,01,15,24,24.10
2006,08,01,15,25,24.10
2006,08,01,15,26,24.20
2006,08,01,15,27,24.30
2006,08,01,15,28,24.40
2006,08,01,15,29,24.60
2006,08,01,15,30,24.70
2006,08,01,15,31,24.70
2006,08,01,15,32,24.70
2006,08,01,15,33,24.70
2006,08,01,15,34,24.70
2006,08,01,15,35,24.60
2006,08,01,15,36,24.60
2006,08,01,15,37,24.50
2006,08,01,15,38,24.50
2006,08,01,15,39,24.50
2006,08,01,15,40,24.40
2006,08,01,15,41,24.20
2006,08,01,15,42,24.20
2006,08,01,15,43,24.10
2006,08,01,15,44,24.20
2006,08,01,15,45,24.20
2006,08,01,15,46,24.30
2006,08,01,15,47,24.30
2006,08,01,15,48,24.30
2006,08,01,15,49,24.40
2006,08,01,15,50,24.30
2006,08,01,15,51,24.30
2006,08,01,15,52,24.30
2006,08,01,15,53,24.30
2006,08,01,15,54,24.30
2006,08,01,15,55,24.20
2006,08,01,15,56,24.20
2006,08,01,15,57,24.20
2006,08,01,15,58,24.10
2006,08,01,15,59,24.10
2006,08,01,16,00,24.10
2006,08,01,16,01,24.00
2006,08,01,16,02,23.90
2006,08,01,16,03,23.90
2006,08,01,16,04,24.00
2006,08,01,16,05,24.10
2006,08,01,16,06,24.00
2006,08,01,16,07,23.90
2006,08,01,16,08,23.90
2006,08,01,16,09,23.90
2006,08,01,16,10,23.90
2006,08,01,16,11,23.80
2006,08,01,16,12,24.00
2006,08,01,16,13,24.00
2006,08,01,16,14,23.90
2006,08,01,16,15,23.90
2006,08,01,16,16,23.70
2006,08,01,16,17,23.70
2006,08,01,16,18,23.70
2006,08,01,16,19,23.70
2006,08,01,16,20,23.80
2006,08,01,16,21,23.80
2006,08,01,16,22,24.00
2006,08,01,16,23,24.10
2006,08,01,16,24,24.20
2006,08,01,16,25,24.20
2006,08,01,16,26,24.20
2006,08,01,16,27,24.30
2006,08,01,16,28,24.30
2006,08,01,16,29,24.30
2006,08,01,16,30,24.40
2006,08,01,16,31,24.40
2006,08,01,16,32,24.30
2006,08,01,16,33,24.20
2006,08,01,16,34,24.40
2006,08,01,16,35,24.50
2006,08,01,16,36,24.60
2006,08,01,16,37,24.60
2006,08,01,16,38,24.60
2006,08,01,16,39,24.60
2006,08,01,16,40,24.60
2006,08,01,16,41,24.60
2006,08,01,16,42,24.60
2006,08,01,16,43,24.60
2006,08,01,16,44,24.50
2006,08,01,16,45,24.40
2006,08,01,16,46,24.40
2006,08,01,16,47,24.30
2006,08,01,16,48,24.20
2006,08,01,16,49,24.20
2006,08,01,16,50,24.20
2006,08,01,16,51,24.10
2006,08,01,16,52,24.10
2006,08,01,16,53,24.10
2006,08,01,16,54,24.10
2006,08,01,16,55,24.10
2006,08,01,16,56,24.00
2006,08,01,16,57,23.90
2006,08,01,16,58,23.90
2006,08,01,16,59,24.10
2006,08,01,17,00,24.10
2006,08,01,17,01,24.10
2006,08,01,17,02,24.20
2006,08,01,17,03,24.20
2006,08,01,17,04,24.20
2006,08,01,17,05,24.30
2006,08,01,17,06,24.30
2006,08,01,17,07,24.30
2006,08,01,17,08,24.40
2006,08,01,17,09,24.50
2006,08,01,17,10,24.60
2006,08,01,17,11,24.60
2006,08,01,17,12,24.60
2006,08,01,17,13,24.60
2006,08,01,17,14,24.60
2006,08,01,17,15,24.50
2006,08,01,17,16,24.40
2006,08,01,17,17,24.30
2006,08,01,17,18,24.10
2006,08,01,17,19,23.90